Regional Weather Roundup
Issued by NWS

Home | Current Version | Previous Version | Graphics & Text | Print | Product List | Glossary On
Versions: 1 2 3 4 5 6 7 8 9 10 11 12 13 14 15 16 17 18 19 20 21 22 23 24 25 26 27 28 29 30 31 32 33 34 35 36 37 38 39 40 41 42 43 44 45 46 47 48 49 50
000
ASUS45 KPSR 151910
RWRAZ

ARIZONA REGIONAL HOURLY WEATHER ROUNDUP
NATIONAL WEATHER SERVICE PHOENIX AZ
1200 PM MST MON SEP 15 2014

NOTE: FAIR INDICATES FEW OR NO CLOUDS BELOW 12,000 FEET WITH NO
SIGNIFICANT WEATHER AND/OR OBSTRUCTIONS TO VISIBILITY.

AZZ001>003-036-152000-
NORTHWEST ARIZONA

CITY           SKY/WX    TMP DP  RH WIND       PRES   REMARKS
BULLHEAD CITY  LGT RAIN 100  55  22 SW6       29.84F
KINGMAN        SUNNY     93  42  17 N5        30.05F
$$

AZZ004>008-015-016-018-152000-
NORTH CENTRAL ARIZONA

CITY           SKY/WX    TMP DP  RH WIND       PRES   REMARKS
GRAND CANYON   MOSUNNY   76  45  33 NE10      30.29F
PRESCOTT       MOSUNNY   83  55  38 CALM      30.17F
FLAGSTAFF      SUNNY     77  45  32 E10       30.32F
PAYSON         SUNNY     82  55  39 VRB6      30.19F
PAGE           SUNNY     86  43  22 NE5       30.13F
$$

AZZ009>014-017-152000-
NORTHEAST ARIZONA

CITY           SKY/WX    TMP DP  RH WIND       PRES   REMARKS
WINSLOW        SUNNY     86  51  29 NE5       30.17F
SAINT JOHNS    SUNNY     81  47  30 VRB3      30.21F
SHOW LOW       SUNNY     77  45  31 NE13G18   30.29F
$$

AZZ023-152000-
GREATER PHOENIX AREA

CITY           SKY/WX    TMP DP  RH WIND       PRES   REMARKS
PHOENIX        MOSUNNY  100  58  24 NE9       29.86F
BUCKEYE          N/A     97  61  30 E13G18    29.86F
GLENDALE       MOSUNNY   99  61  28 E8        29.88F
LUKE AFB       SUNNY     98  61  28 CALM      29.86F
DEER VALLEY    SUNNY     97  57  26 VRB3      29.88F
SCOTTSDALE     SUNNY     97  58  27 VRB5      29.90F
MESA-FALCON    MOSUNNY  100  59  25 E7        29.88F HX 100
MESA-GATEWAY   MOSUNNY   99  59  26 SE6       29.90F
CHANDLER       MOSUNNY   99  61  28 E8        29.88F
$$

AZZ027-028-152000-
SOUTHWEST MARICOPA COUNTY AND PINAL COUNTY

CITY           SKY/WX    TMP DP  RH WIND       PRES   REMARKS
CASA GRANDE    SUNNY     97  57  26 CALM      29.90S
GILA BEND      CLEAR    102  55  21 E10G18    29.84S HX 101
$$

AZZ503-504-507>509-152000-
SOUTHEAST ARIZONA

CITY           SKY/WX    TMP DP  RH WIND       PRES   REMARKS
TUCSON         SUNNY     93  56  28 MISG      29.99F
DAVIS-MONTHAN  SUNNY     95  54  24 SE2       29.96F
RYAN FIELD       N/A     93  57  29 E10       29.96F
NOGALES        MOSUNNY   86  58  38 CALM      30.06F
SIERRA VISTA   PTSUNNY   79  57  47 E7        30.15F
DOUGLAS        CLOUDY    84  55  36 CALM      30.10F
SAFFORD        SUNNY     86  57  37 S13G18    30.05F
$$

AZZ020-021-025-026-031-152000-
SOUTHWEST ARIZONA

CITY           SKY/WX    TMP DP  RH WIND       PRES   REMARKS
YUMA           SUNNY    106  53  17 CALM      29.77F HX 104
$$

CAZ031-033-041-043-047-048-061-152000-
SOUTHERN CALIFORNIA

CITY           SKY/WX    TMP DP  RH WIND       PRES   REMARKS
DOWNTOWN L.A.  SUNNY     93  68  43 CALM      29.79S
L.A. AIRPORT   MOSUNNY   82  65  56 W12       29.81F
SAN DIEGO      MOSUNNY   85  67  54 NW10      29.79F
BURBANK        SUNNY     99  48  17 SE3       29.81F
ONTARIO        MOSUNNY  100  51  19 SW3       29.82F
RIVERSIDE      SUNNY    101  55  21 W7        29.81F
PALM SPRINGS   MOSUNNY  107  51  15 VRB7      29.80F HX 104
EL CENTRO NAS  MOSUNNY  105  60  22 CALM      29.75F HX 106
IMPERIAL       SUNNY    105  61  23 NE6       29.74F HX 106
BLYTHE         SUNNY    105  57  20 VRB5      29.79F HX 104
NEEDLES        SUNNY    102  54  20 VRB3      29.85F HX 100
$$

NVZ020-UTZ003-152000-
SOUTHERN NEVADA-UTAH

CITY           SKY/WX    TMP DP  RH WIND       PRES   REMARKS
LAS VEGAS      MOSUNNY   96  47  18 CALM      29.91F
SALT LAKE CITY MOSUNNY   84  37  18 CALM      30.11S
$$

NMZ009-TXZ055-152000-
NEW MEXICO-WEST TEXAS

CITY           SKY/WX    TMP DP  RH WIND       PRES   REMARKS
ALBUQUERQUE    MOSUNNY   76  54  46 W5        30.23F
EL PASO        CLOUDY    76  59  55 SE10      30.16F
$$


........................KEY........................
SKY/WX - SKY CONDITION/WEATHER
TMP    - TEMPERATURE IN FAHRENHEIT
DP     - DEW POINT IN FAHRENHEIT
RH     - RELATIVE HUMIDITY IN PERCENT
WIND   - DIRECTION AND SPEED IN MILES PER HOUR (MPH)
VRB    - VARIABLE WIND DIRECTION
PRES   - MEAN SEA LEVEL PRESSURE IN INCHES OF MERCURY
         F - FALLING PRESSURE   R - RISING PRESSURE
         S - STEADY PRESSURE
VSB    - VISIBILITY IN MILES
HX     - HEAT INDEX IN FAHRENHEIT
WCI    - WIND CHILL INDEX IN FAHRENHEIT
TC     - TEMPERATURE IN CELSIUS WHICH IS ALSO KNOWN AS
         TEMPERATURE IN CENTIGRADE
AFB    - AIR FORCE BASE
         LUKE AFB IS LUKE AIR FORCE BASE
         DAVIS-MONTHAN IS DAVIS-MONTHAN AIR FORCE BASE
NAS    - NAVAL AIR STATION
         EL CENTRO NAS IS EL CENTRO NAVAL AIR STATION
N/A    - NOT AVAILABLE


USA.gov is the U.S. government's official web portal to all federal, state and local government web resources and services.